Location: Barnston
(51.8500°N, 0.4000°E)
Time: 19:07:21
(UTC+00:00)

COBE Rocket - Pass Details

Date: 26 September 2023
Orbit: 678 x 778 km, 97.1° (Epoch: 08 December)

Event Time Altitude Azimuth Distance (km) Brightness Sun altitude
Rises 04:08:00 0° 13° (NNE) 3,073 7.6 -16.3°
Reaches altitude 10° 04:10:14 10° 14° (NNE) 2,162 6.8 -16.0°
Maximum altitude 04:14:59 86° 104° (ESE) 715 3.8 -15.3°
Drops below altitude 10° 04:19:50 10° 193° (SSW) 2,202 6.1 -14.6°
Sets 04:22:07 0° 194° (SSW) 3,134 6.9 -14.3°
Enters shadow 04:22:12 - 194° (SSW) 3,170 6.9 -14.3°
